EDT,Max TemperatureF,Mean TemperatureF,Min TemperatureF,Max Dew PointF,MeanDew PointF,Min DewpointF,Max Humidity, Mean Humidity, Min Humidity, Max Sea Level PressureIn, Mean Sea Level PressureIn, Min Sea Level PressureIn, Max VisibilityMiles, Mean VisibilityMiles, Min VisibilityMiles, Max Wind SpeedMPH, Mean Wind SpeedMPH, Max Gust SpeedMPH,PrecipitationIn, CloudCover, Events, WindDirDegrees
2013-3-1,32,30,27,27,26,21,92,79,66,29.97,29.86,29.79,10,6,1,15,9,20,0.03,8,Snow,314
2013-3-2,27,24,21,21,18,15,88,78,68,30.03,29.91,29.83,10,5,1,16,8,20,T,8,Snow,321
2013-3-3,24,22,19,18,16,14,84,78,71,30.09,29.94,29.87,10,4,1,15,9,21,0.02,8,Snow,314
2013-3-4,38,28,18,21,12,9,84,58,32,30.21,30.12,29.96,10,10,8,10,6,,T,4,Snow,302
2013-3-5,44,37,30,35,31,23,92,81,69,30.09,29.83,29.58,10,8,1,23,9,31,0.46,8,Rain-Snow,139
2013-3-6,32,29,25,28,24,20,92,85,78,30.20,29.85,29.61,10,6,1,20,11,26,0.02,8,Rain-Snow,293
2013-3-7,30,29,27,27,25,25,92,85,78,30.34,30.25,30.09,10,6,0,16,9,23,T,8,Fog-Rain,303
2013-3-8,42,34,26,25,23,21,85,65,45,30.42,30.34,30.21,10,10,10,17,9,25,0.00,5,,332
2013-3-9,56,39,22,27,24,19,88,59,30,30.39,30.31,30.20,10,10,10,17,7,25,0.00,0,,129
2013-3-10,63,54,44,33,29,25,49,40,30,30.20,30.14,30.06,10,10,10,18,12,28,0.00,2,,138
2013-3-11,56,52,48,47,39,30,86,65,44,30.06,29.91,29.81,10,10,5,26,12,37,0.12,4,Rain,164
2013-3-12,49,39,29,46,34,26,96,80,64,30.07,29.91,29.78,10,9,2,15,7,20,0.15,7,Rain-Snow,309
2013-3-13,34,28,22,28,23,16,85,75,64,30.24,30.05,29.95,10,4,0,26,10,36,0.06,8,Fog-Snow,288
2013-3-14,39,30,20,19,15,10,84,60,35,30.35,30.22,30.14,10,7,1,18,10,26,0.02,5,Snow,307
2013-3-15,55,41,26,31,22,12,63,51,38,30.24,30.05,29.89,10,10,10,21,8,30,0.00,2,,258
2013-3-16,69,55,40,47,42,31,89,64,39,29.88,29.77,29.63,10,10,7,29,11,43,0.12,5,Rain,274
2013-3-17,46,42,37,40,38,35,92,84,76,30.06,30.00,29.89,10,6,0,21,7,29,0.07,8,Fog-Rain,30
2013-3-18,42,38,33,37,33,30,92,86,79,30.05,29.95,29.82,10,10,4,29,14,40,0.13,7,Rain,138
2013-3-19,49,41,32,43,25,-1,89,52,14,30.07,29.90,29.77,10,9,1,38,14,47,0.05,5,Rain,277
2013-3-20,45,35,25,28,16,5,78,50,22,30.08,29.94,29.81,10,8,0,23,11,32,0.04,4,Fog-Snow,290
2013-3-21,25,20,15,21,13,7,84,76,67,30.06,29.85,29.77,10,4,0,20,10,26,0.06,7,Snow,314
2013-3-22,40,25,10,16,11,5,76,53,30,30.12,30.07,30.02,10,10,10,14,4,18,0.00,0,,273
2013-3-23,49,37,24,21,16,13,69,48,26,30.07,30.01,29.91,10,10,10,10,3,15,0.00,5,,25
2013-3-24,39,35,31,30,27,16,92,66,40,29.90,29.59,29.41,10,6,1,25,13,37,0.37,7,Rain-Snow,135
2013-3-25,33,31,28,30,25,23,92,85,78,29.86,29.56,29.42,10,3,0,22,12,31,0.09,8,Fog-Snow,259
2013-3-26,34,31,28,27,25,23,92,81,69,30.19,29.99,29.78,10,6,2,16,10,21,0.07,8,Snow,298
2013-3-27,34,31,27,29,25,21,92,81,69,30.30,30.18,30.09,10,4,0,20,9,25,0.08,8,Fog-Snow,294
2013-3-28,43,35,27,27,23,19,92,69,45,30.33,30.26,30.17,10,9,2,20,8,25,T,6,Snow,304
2013-3-29,51,37,23,25,22,19,81,58,34,30.35,30.29,30.23,10,10,10,16,5,22,0.00,2,,259
2013-3-30,58,44,29,31,26,22,82,54,25,30.25,30.16,30.02,10,10,10,12,4,15,0.00,1,,204
2013-3-31,52,48,43,46,42,29,96,71,46,29.99,29.85,29.80,10,9,3,18,9,25,0.19,7,Rain,249